STARLINK-3264, 50198

Orbit data source: Space-Track

STARLINK-3264, 50198 is a payload satellite owned by SpaceX/Seattle (US) in LEO that was launched on Sat, 18 Dec 2021 UTC via an FALCON 9 launch vehicle from the Air Force Western Test Range (AFWTR). Payload-class satellites include a variety of spacecraft equipped with specific instruments for various scientific and technological missions. These include communications satellites like Starlink; space stations such as the ISS; scientific satellites like the Hubble; Earth observation satellites from companies like Planet Labs, Umbra, and HawkEye 360; GPS; miniature CubeSats for education and research; and military/defense satellites.

Loading next visibility...
Identifier
50198, 2021-125AU
Orbit
LEO
Country
Flag of USUS
Related business
Manufacturer
SpaceX/Seattle
Mission
Operational Commercial Communications
Bus & Motor
STARLINK, Unknown motor
Mass
290 kg wet, ~270 kg dry
Launch date (UTC)
2021-12-18 (5 years ago)
Launch vehicle
FALCON 9
Launch site
Air Force Western Test Range (AFWTR)
Object type
Payload
Rocket body
Debris
Shape & HBR
Box + 1 Pan, 10.1 m
Radar Cross Section
13.562 m², Large (>1 m²)

Expand to show TLE details & history
Last TLE update: 1 day ago

TLE from 1 day ago
0 STARLINK-3264
1 50198U 21125AU  26169.23031545 -.00000076  00000-0  13300-4 0  9996
2 50198  53.1599 147.6747 0001317  92.5140 267.6002 15.08830513251911
Epoch: 2026-06-18T05:31Z
TLE epoch observation values (Epoch: 2026-06-18T05:31:39.254Z)
Latitude
-0.00006°
Longitude
158.28447°
Altitude
540.702 km
Speed
7.593 km/s
True Right ascension
09h 50m 41s
True Declination
0° 00' 00"
Sunlit
Object was in daylight at epoch
Visualization orbit readout
Latitude
Unknown
Longitude
Unknown
Altitude
Unknown
Speed
Unknown
Apparent Right ascension
Unknown
Apparent Declination
Unknown
Sunlit
N/A
Visualization observer readout
Local Sidereal Time
17:10:20
Azimuth
Unknown
Elevation
Unknown
Doppler factor
Unknown
Orbital elements
Apogee altitude
540.938 km
Perigee altitude
539.115 km
Semi-major axis
6,918.164 km
Eccentricity
0.00013
Inclination
53.1599°
RAAN
147.6747°
Arg. of periapsis
92.514°
True anomaly
267.58512°
Mean anomaly
267.6002°
Eccentric anomaly
267.59266°
Mean motion
3.77187 °/min
Orbital period
95.44 mins
BSTAR
0.0000133
Loading maneuver chart data...
Computing Atmospheric mass density...
Loading historical data...
Loading historical data...
Loading historical data...
Loading historical data...
Loading historical data...
Loading historical data...
Loading historical data...

Documentation

Showing up to 5 results
|